Winter Haven, FL

10:24 PM EST on December 04, 2016 (GMT -0500)
Winter Haven's-Gilbert

Weather History for KGIF - April, 2013

Change the Weather History Date:

Tuesday, April 23, 2013

  Actual Average Record
Temperature  
Mean Temperature 74 °F -  
Max Temperature 84 °F 86 °F 96 °F (1968)
Min Temperature 64 °F 61 °F 47 °F (1986)
Cooling Degree Days 9    
Growing Degree Days 24 (Base 50)    
Moisture  
Dew Point 61 °F    
Average Humidity 74    
Maximum Humidity 93    
Minimum Humidity 41    
Precipitation  
Precipitation 0.00 in - - ()
Sea Level Pressure  
Sea Level Pressure 30.08 in    
Wind  
Wind Speed 10 mph (NE)    
Max Wind Speed 17 mph    
Max Gust Speed 16 mph    
Visibility 9 miles    
Events      
Averages and records for this station are not official NWS values.
T = Trace of Precipitation, MM = Missing Value Source: NWS Daily Summary

Daily Weather History Graph

Daily Weather History Graph

Search for Another Location

Airport or City:

Trip Planner

Search our weather history database for the weather conditions in past years. The results will help you decide how hot, cold, wet, or windy it might be!

Date:

Astronomy

Apr. 23, 2013 Rise Set
Actual Time 6:53 AM EDT 7:57 PM EDT
Civil Twilight 6:29 AM EDT 8:21 PM EDT
Nautical Twilight 6:00 AM EDT 8:50 PM EDT
Astronomical Twilight 5:30 AM EDT 9:20 PM EDT
Moon 5:59 PM EDT (4/23) 5:09 AM EDT (4/23)
Length of Visible Light 13h 52m
Length of Day
13h 03m
Waxing Gibbous, 94% of the Moon is Illuminated
Apr 23
Waxing Gibbous
Apr 25
Full
May 2
Last Quarter
May 9
New
May 18
First Quarter

Hourly Weather History & Observations

Time (EDT) Temp. Heat Index Dew Point Humidity Pressure Visibility Wind Dir Wind Speed Gust Speed Precip Events Conditions
12:03 AM 66.0 °F - 62.1 °F 87% 30.10 in 7.0 mi NNE 9.2 mph - N/A   Overcast
12:15 AM 66.0 °F - 62.1 °F 87% 30.10 in 6.0 mi NNE 9.2 mph - N/A   Overcast
12:37 AM 64.9 °F - 62.1 °F 90% 30.09 in 6.0 mi NNE 8.1 mph - N/A   Overcast
12:53 AM 64.9 °F - 62.1 °F 90% 30.08 in 7.0 mi NNE 8.1 mph - N/A   Overcast
1:53 AM 64.9 °F - 62.1 °F 90% 30.07 in 7.0 mi North 8.1 mph - N/A   Overcast
2:01 AM 64.9 °F - 62.1 °F 90% 30.07 in 7.0 mi North 8.1 mph - N/A   Overcast
2:19 AM 64.9 °F - 62.1 °F 90% 30.07 in 7.0 mi NNE 8.1 mph - N/A   Overcast
2:38 AM 64.9 °F - 63.0 °F 93% 30.06 in 7.0 mi North 8.1 mph - N/A   Overcast
2:53 AM 64.9 °F - 62.1 °F 90% 30.06 in 7.0 mi North 10.4 mph - N/A   Overcast
3:53 AM 64.9 °F - 63.0 °F 93% 30.04 in 8.0 mi NNE 10.4 mph - N/A   Overcast
4:53 AM 64.9 °F - 62.1 °F 90% 30.04 in 8.0 mi NNE 10.4 mph - N/A   Overcast
5:53 AM 64.9 °F - 62.1 °F 90% 30.04 in 9.0 mi North 8.1 mph - N/A   Overcast
6:53 AM 64.0 °F - 62.1 °F 93% 30.06 in 8.0 mi North 6.9 mph - N/A   Overcast
7:18 AM 64.0 °F - 62.1 °F 93% 30.08 in 7.0 mi North 8.1 mph - N/A   Overcast
7:32 AM 64.0 °F - 62.1 °F 93% 30.08 in 8.0 mi North 8.1 mph - N/A   Overcast
7:53 AM 64.9 °F - 62.1 °F 90% 30.08 in 8.0 mi North 8.1 mph - N/A   Mostly Cloudy
8:22 AM 66.9 °F - 62.1 °F 84% 30.09 in 10.0 mi NNE 10.4 mph - N/A   Scattered Clouds
8:53 AM 69.1 °F - 62.1 °F 78% 30.09 in 10.0 mi NNE 10.4 mph - N/A   Clear
9:53 AM 73.9 °F - 61.0 °F 64% 30.12 in 10.0 mi NE 13.8 mph - N/A   Clear
10:53 AM 75.9 °F - 61.0 °F 60% 30.13 in 10.0 mi ENE 17.3 mph - N/A   Clear
11:53 AM 78.1 °F - 61.0 °F 56% 30.13 in 10.0 mi East 10.4 mph - N/A   Mostly Cloudy
12:53 PM 80.1 °F 80.9 °F 60.1 °F 50% 30.10 in 10.0 mi East 11.5 mph - N/A   Scattered Clouds
1:53 PM 81.0 °F 81.3 °F 59.0 °F 47% 30.09 in 10.0 mi ENE 10.4 mph 16.1 mph N/A   Mostly Cloudy
2:53 PM 84.0 °F 83.8 °F 59.0 °F 43% 30.08 in 10.0 mi ENE 12.7 mph - N/A   Scattered Clouds
3:53 PM 82.0 °F 82.0 °F 57.9 °F 44% 30.06 in 10.0 mi ENE 10.4 mph - N/A   Partly Cloudy
4:53 PM 82.9 °F 82.4 °F 57.0 °F 41% 30.06 in 10.0 mi ENE 11.5 mph - N/A   Partly Cloudy
5:53 PM 80.1 °F 80.1 °F 55.0 °F 42% 30.06 in 10.0 mi ENE 13.8 mph - N/A   Partly Cloudy
6:53 PM 78.1 °F - 55.0 °F 45% 30.07 in 10.0 mi ENE 12.7 mph - N/A   Clear
7:53 PM 73.9 °F - 55.9 °F 53% 30.09 in 10.0 mi ENE 12.7 mph - N/A   Clear
8:53 PM 71.1 °F - 57.0 °F 61% 30.10 in 10.0 mi ENE 12.7 mph - N/A   Clear
9:53 PM 69.1 °F - 60.1 °F 73% 30.12 in 10.0 mi ENE 11.5 mph - N/A   Clear
10:53 PM 66.9 °F - 60.1 °F 79% 30.13 in 10.0 mi ENE 12.7 mph - N/A   Clear
11:53 PM 64.9 °F - 59.0 °F 81% 30.13 in 10.0 mi ENE 10.4 mph - N/A   Clear